Wind_Speed
3 5 6 6 5 5 5 7 10 11 8 8 9 9 9 10 8 8 9 6 4 7 11 17 20 20 21 23 23 22 17 17 24 29 30 31 31 30 32 32 31 31 30 29 32 38 43 42 41 38 37 37 35 34 34 30 28 29 30 29 27 25 24 24 24 21 18 17 19 20 19 19 17 15 14 13 17 25 27 27 27 26 22 19 20 18
4 7 5 4 5 5 7 8 9 10 10 10 10 10 11 10 11 10 10 9 7 8 10 14 17 18 19 19 22 25 21 19 22 23 25 29 29 30 32 32 31 29 29 29 25 30 40 42 41 41 40 40 37 35 35 33 31 32 32 32 30 27 26 26 26 24 20 17 19 21 20 18 16 15 15 14 18 25 27 27 27 27 24 20 21 19
6 7 3 2 4 6 8 8 9 11 12 11 9 10 10 9 10 11 11 12 9 7 10 13 14 13 15 16 17 19 19 20 22 20 21 24 26 29 31 32 32 30 29 27 23 28 38 42 43 43 42 42 40 39 39 35 33 34 34 32 31 29 28 28 27 27 23 18 18 21 20 18 15 15 15 16 22 26 27 28 27 26 25 22 21 19
5 4 3 2 2 5 7 8 9 10 10 10 9 9 9 10 10 9 10 12 11 10 11 13 12 11 12 14 15 17 18 19 20 19 17 18 20 24 28 30 32 32 32 28 24 27 36 39 42 45 45 46 45 43 43 38 34 35 34 32 33 32 31 30 27 27 26 20 19 21 20 17 16 15 15 20 24 25 26 27 26 26 25 23 20 18
9 7 1 2 5 7 8 9 9 9 8 10 12 10 10 10 9 8 6 5 8 11 13 12 11 10 13 15 15 17 20 21 22 22 20 20 20 20 23 28 31 34 34 32 26 26 32 35 39 43 46 47 47 47 47 41 37 36 34 31 33 35 33 31 29 28 27 24 21 20 19 17 17 15 15 21 26 25 26 27 26 25 23 21 20 18
10 8 5 7 9 10 11 10 9 9 7 9 12 13 13 12 10 9 8 7 7 9 12 13 11 9 13 19 18 16 17 20 23 24 25 28 26 21 22 24 29 33 35 34 29 26 30 34 36 39 43 45 45 47 47 42 37 35 32 30 33 35 35 33 31 30 29 28 24 22 21 20 19 17 16 21 26 25 26 26 25 23 21 20 21 20
8 7 6 9 11 12 12 11 10 9 8 8 8 9 11 12 12 11 11 9 8 8 9 12 12 9 10 16 18 18 19 20 22 23 27 33 31 26 24 24 25 29 33 34 31 28 28 33 35 36 40 43 44 45 43 38 36 33 30 30 33 35 37 37 34 32 31 30 27 25 24 21 19 19 17 20 26 26 26 25 21 19 18 19 21 21
4 7 7 8 10 11 10 10 10 10 9 7 1 2 6 8 11 12 11 10 8 9 8 8 11 10 9 12 13 16 20 21 22 22 25 31 35 32 28 25 24 26 29 30 30 27 25 30 35 37 40 43 44 43 40 36 36 34 31 31 32 36 40 39 36 34 32 31 30 28 26 21 18 20 19 19 22 23 25 25 19 16 18 19 20 22
2 6 8 9 10 9 9 9 7 9 11 6 2 2 7 7 9 9 9 9 9 9 9 10 12 10 9 11 10 11 16 18 21 23 23 27 35 37 32 27 24 25 26 26 27 26 24 30 37 39 40 43 43 40 37 34 31 30 33 33 32 35 39 40 38 36 34 32 32 31 28 21 19 21 20 18 18 18 23 24 20 19 20 19 20 21
7 10 10 11 11 8 9 10 7 8 10 6 1 5 8 8 9 9 8 8 9 10 10 12 13 10 10 11 11 11 13 15 17 19 20 24 30 33 33 30 25 26 26 24 25 24 23 28 35 39 41 41 40 38 37 34 30 33 39 36 31 33 37 40 40 38 35 33 33 33 31 23 21 21 20 19 19 18 20 21 20 20 20 19 19 20
14 13 9 10 12 12 12 12 11 11 11 7 5 7 9 8 8 8 8 8 9 10 12 14 15 13 10 9 10 11 12 13 14 14 15 20 26 29 30 29 25 26 28 26 24 24 23 23 27 35 38 39 39 38 38 37 37 41 41 34 30 33 37 40 41 39 37 34 34 35 34 27 24 22 21 23 22 20 20 19 19 19 18 19 19 20
12 12 9 10 14 14 13 12 13 13 12 10 9 8 8 8 8 7 8 8 9 10 11 14 17 16 12 9 9 11 12 13 14 14 14 16 22 27 28 27 24 24 28 28 25 23 23 21 22 29 34 37 39 39 39 41 42 43 39 33 31 33 37 40 41 41 39 36 35 36 36 32 28 25 24 24 23 23 23 21 19 19 17 18 19 20
9 10 9 11 13 13 12 10 10 11 11 10 9 9 9 8 7 8 9 9 10 10 11 12 14 14 12 10 12 14 11 10 11 12 12 12 16 21 23 24 22 21 25 28 25 21 22 22 21 25 32 35 37 38 39 41 43 42 38 34 33 33 35 38 42 43 42 39 38 37 38 37 32 28 27 25 22 23 22 20 20 20 18 18 20 23
7 7 6 7 7 10 12 10 8 8 10 11 10 10 9 8 8 9 9 9 10 11 13 13 10 8 9 9 13 18 16 13 14 14 15 15 15 16 17 17 16 15 18 22 22 20 19 20 20 22 29 34 35 36 38 39 42 42 38 36 35 33 33 36 40 44 44 43 41 39 39 38 35 30 28 25 24 24 21 19 21 21 18 18 21 24
7 5 3 4 1 4 10 12 10 9 8 10 11 10 11 10 9 8 8 9 10 11 13 14 11 7 7 5 6 11 16 19 21 22 22 22 21 20 18 18 16 14 15 18 19 17 16 18 18 19 26 31 32 34 35 37 41 42 39 36 35 34 34 34 37 43 46 45 44 43 42 40 37 32 26 23 24 25 22 20 21 22 21 22 23 23
8 7 1 4 1 2 7 9 10 11 8 8 9 10 11 11 10 9 9 8 7 7 9 10 9 8 8 7 5 6 10 13 16 19 21 23 25 24 23 22 21 18 17 17 18 16 14 16 17 19 23 28 29 31 33 37 40 42 40 37 35 36 36 35 35 40 45 43 42 44 45 42 39 34 28 23 22 24 25 24 23 23 24 24 25 24
7 5 1 3 6 7 10 8 8 10 7 5 8 10 10 10 10 9 10 9 6 7 7 6 8 9 8 11 12 14 14 13 13 13 15 18 21 23 24 23 23 22 20 18 17 16 15 16 18 20 22 25 28 30 31 35 38 41 39 34 34 36 38 38 35 38 42 40 38 41 45 45 41 37 34 28 22 24 29 28 23 24 25 23 23 23
5 7 6 7 8 6 7 9 10 11 9 6 5 7 8 7 7 7 8 8 8 9 8 9 12 11 8 7 7 11 14 16 16 14 13 15 16 18 20 22 23 23 21 20 19 17 18 18 19 20 22 24 29 32 32 32 33 36 34 29 30 34 38 39 36 37 39 36 34 35 38 42 41 39 39 31 22 25 30 26 22 25 26 22 22 22
2 8 7 4 5 4 4 8 10 10 13 12 6 4 5 6 6 7 8 6 8 8 8 11 14 11 9 8 6 6 8 11 14 15 15 15 15 16 18 19 22 23 23 23 22 21 20 20 20 21 22 24 27 31 33 32 32 33 32 28 29 32 36 38 36 35 33 32 34 32 30 36 38 37 40 35 24 25 29 24 21 26 27 23 22 23
1 6 4 3 4 4 5 7 7 6 10 12 10 6 6 6 5 7 7 7 9 9 8 11 12 10 8 9 11 11 8 8 9 11 13 14 15 16 17 17 19 21 22 23 24 23 22 21 21 21 23 24 26 28 31 33 34 34 33 30 30 34 36 35 35 35 34 37 39 32 27 31 32 32 37 35 26 25 27 23 21 26 28 25 24 24
3 5 5 2 3 3 6 6 7 6 6 8 8 8 8 6 5 5 6 8 9 9 9 9 9 8 7 7 10 12 11 11 12 11 11 12 14 16 17 17 18 19 20 21 22 24 23 21 21 22 22 23 25 27 29 33 35 35 35 32 31 36 37 33 34 37 37 38 37 32 30 29 28 29 31 31 29 27 25 22 21 24 27 27 25 25
4 4 6 6 4 7 8 7 8 8 5 6 7 7 9 8 7 6 7 8 9 9 9 9 9 8 7 5 6 9 10 10 10 10 9 9 11 12 13 14 14 15 15 15 16 19 20 19 21 23 23 22 23 26 27 31 34 35 36 34 33 36 39 36 35 36 36 33 30 31 31 29 28 27 28 32 35 30 24 22 22 23 27 29 28 26
3 2 6 8 8 11 13 12 11 9 7 7 7 7 8 8 8 8 7 7 8 10 10 10 9 9 9 8 7 8 9 8 8 7 7 7 7 7 8 8 10 11 11 11 11 13 16 18 20 23 25 25 24 25 26 28 33 37 37 35 34 36 39 40 36 35 35 32 29 30 30 30 29 26 29 36 36 30 25 23 23 24 26 29 29 27
5 2 5 8 9 11 13 11 10 10 9 8 8 9 9 9 10 9 8 7 6 9 10 8 9 10 9 9 9 8 9 10 10 9 7 7 7 6 6 5 7 8 9 10 10 11 13 17 20 23 25 26 25 25 25 27 31 36 38 37 36 36 39 40 36 35 35 30 27 28 28 30 30 28 32 36 33 31 27 23 23 24 25 27 29 29
4 3 3 6 8 6 5 4 5 8 9 8 8 10 11 12 12 11 9 8 7 10 11 9 9 9 6 6 7 8 9 11 11 11 9 8 8 7 5 4 4 6 7 9 11 12 13 16 20 24 26 26 25 25 25 26 29 33 38 39 39 38 38 39 37 35 35 30 25 26 28 31 31 31 32 32 31 34 30 23 24 25 24 26 28 30
2 3 3 4 7 6 5 3 2 3 5 7 9 12 14 15 15 11 8 8 9 11 12 11 10 10 8 9 10 10 12 13 12 12 11 10 10 8 7 6 6 5 7 10 12 13 14 16 20 24 27 27 27 26 26 28 29 33 38 39 39 39 39 40 38 36 36 31 25 26 28 32 33 31 30 31 33 36 32 25 25 26 26 26 27 31
2 4 6 7 7 7 10 10 8 7 6 7 10 13 14 15 15 12 8 9 10 10 11 12 12 13 13 13 13 13 15 15 13 12 12 12 11 10 12 12 9 7 7 9 11 13 14 16 18 23 28 30 29 28 28 30 31 33 38 39 39 39 39 40 40 37 35 30 25 25 27 31 34 31 30 31 34 36 32 27 27 27 26 26 26 29
3 6 7 10 12 12 14 15 15 13 11 10 10 13 14 15 17 15 13 13 12 9 10 11 12 14 14 13 13 14 15 15 13 12 12 13 12 12 16 17 12 9 8 8 10 13 14 16 18 21 27 31 31 31 31 33 34 34 36 38 38 39 40 41 40 38 36 31 26 26 27 29 33 31 30 30 31 34 34 30 31 29 26 26 26 26
4 6 6 9 12 13 14 17 18 15 14 13 12 13 14 15 18 19 18 18 14 12 11 11 12 14 13 13 14 13 13 14 14 14 16 18 18 16 18 18 14 9 8 8 9 12 14 16 17 20 26 31 34 34 34 34 35 35 36 37 38 39 40 41 40 40 38 33 27 26 26 28 31 31 31 30 31 35 36 34 34 32 28 28 27 26
4 5 7 9 12 13 13 16 17 15 15 14 14 15 14 16 18 19 19 19 19 18 17 16 17 17 15 15 14 14 15 16 16 18 21 22 22 19 18 19 16 10 8 9 10 12 13 15 16 19 23 29 34 37 37 36 36 35 35 36 37 39 40 41 41 41 37 33 29 26 25 28 32 32 31 31 34 37 37 35 35 32 29 28 28 27
5 4 8 10 11 11 10 12 13 13 14 14 15 15 14 15 17 18 18 17 18 19 19 20 19 17 14 13 14 17 21 21 18 18 21 21 20 19 19 19 17 11 9 10 12 13 15 16 17 18 21 27 33 38 39 39 37 36 37 38 39 40 40 41 42 40 37 33 29 25 27 31 34 33 31 31 33 35 36 35 33 31 28 27 29 30
5 5 8 8 10 10 5 6 7 8 10 13 15 15 15 15 15 15 15 15 16 17 18 18 16 13 11 10 11 16 19 18 16 16 18 19 18 17 19 20 18 13 11 13 15 16 17 19 20 20 22 26 30 36 40 40 38 36 38 40 40 41 41 41 41 40 37 34 28 26 31 34 34 33 31 30 32 35 36 34 32 29 26 26 31 33
5 6 7 6 8 10 7 1 1 3 5 7 8 10 12 13 13 14 16 17 18 16 14 14 12 11 11 10 10 13 13 14 15 16 18 19 18 18 19 19 16 13 13 14 16 17 20 21 21 20 22 24 27 33 39 41 40 39 40 42 41 41 42 41 41 39 35 31 28 28 32 34 33 33 32 32 33 35 35 34 32 29 26 25 30 33
8 8 7 5 5 9 10 5 2 4 3 1 2 5 4 4 6 10 13 16 18 16 14 14 14 14 14 12 12 13 13 16 19 18 18 19 21 20 18 16 15 14 14 14 15 18 22 23 22 20 20 23 26 29 34 38 40 40 39 39 36 35 36 37 39 37 30 27 28 30 31 32 33 33 32 33 34 35 36 35 31 29 27 28 32 34
10 9 7 4 3 7 9 6 4 3 1 2 4 6 7 6 5 8 14 18 20 20 19 18 18 17 16 14 13 14 16 19 21 20 21 21 19 17 15 16 16 16 16 16 17 21 24 25 23 21 20 22 24 26 29 33 35 33 33 33 31 30 31 32 33 31 26 26 29 31 32 33 34 33 32 34 36 36 37 34 30 28 29 30 34 37
10 9 6 4 4 6 6 6 6 2 3 3 3 4 5 5 4 6 12 16 17 18 18 17 16 14 13 13 13 15 17 20 21 21 20 16 12 11 14 16 18 18 18 18 19 23 27 26 23 21 19 20 21 24 27 30 31 30 30 30 31 30 29 29 29 27 26 27 28 31 33 33 33 33 34 35 37 38 37 33 30 29 27 27 31 36
7 7 6 3 3 5 7 7 6 2 1 1 2 2 3 6 7 7 9 12 12 9 8 9 10 10 10 12 13 14 15 15 15 14 10 5 7 14 17 17 17 18 19 19 21 24 26 24 21 18 18 18 19 22 25 27 29 29 29 29 29 29 28 29 29 28 27 28 29 30 33 33 32 33 35 36 36 38 36 33 32 32 30 28 29 34
5 5 5 4 3 4 7 7 5 3 2 1 2 5 8 11 14 12 9 8 7 3 2 4 6 7 9 11 12 13 12 10 9 8 4 5 13 20 20 18 17 16 18 20 22 24 22 19 17 15 15 17 18 20 23 25 28 28 28 28 28 29 30 31 31 29 28 28 30 33 34 34 34 34 35 35 34 36 37 35 34 36 35 33 33 35
6 3 4 5 5 7 9 8 5 3 2 2 5 12 17 18 16 10 6 2 1 4 7 8 7 7 8 10 11 10 8 7 7 5 9 15 20 21 20 20 19 16 19 22 22 22 22 18 13 11 13 15 17 20 22 24 26 27 28 28 28 30 32 33 32 30 28 27 30 33 34 35 35 34 33 34 34 36 37 35 36 38 37 35 37 38
11 6 4 6 7 8 9 7 2 1 2 4 7 15 23 22 13 5 2 2 4 10 13 12 10 9 9 11 10 6 5 7 7 10 16 21 22 20 18 19 18 17 21 24 20 19 22 16 9 9 12 14 16 19 21 23 25 26 26 27 28 30 32 32 30 29 27 27 30 32 32 33 34 33 32 34 35 36 35 35 38 40 37 35 37 37
11 8 7 10 10 9 10 7 3 1 1 5 12 19 24 19 8 2 5 10 15 18 17 15 13 11 10 10 9 6 7 12 15 18 21 21 20 18 16 16 17 17 21 23 18 17 22 16 9 9 11 13 15 17 20 22 23 24 24 26 28 30 30 28 27 27 27 28 30 31 30 30 31 31 31 32 33 34 34 36 37 36 33 33 35 34
10 9 8 10 10 10 10 8 7 2 1 9 21 21 15 9 4 3 11 19 21 18 17 16 13 12 13 13 12 12 14 17 20 19 17 16 18 17 14 14 16 16 19 20 16 14 18 12 5 8 10 13 14 17 18 20 21 23 24 24 26 27 26 25 25 26 26 27 28 28 29 29 30 30 30 31 32 32 33 34 34 32 31 31 34 34
9 8 8 9 8 8 8 9 8 3 6 22 27 12 2 5 8 11 15 18 20 20 19 18 16 14 15 16 16 18 18 19 19 16 12 13 16 15 13 13 13 15 17 18 14 10 10 5 3 5 8 11 14 16 18 18 19 19 19 20 21 22 22 21 22 23 23 24 24 25 26 29 31 32 31 32 33 32 32 33 33 34 34 31 31 35
8 8 6 6 5 6 7 8 7 5 14 28 24 9 10 19 22 21 19 18 23 25 22 20 20 18 17 17 18 20 19 18 18 15 12 11 9 8 9 10 11 11 14 15 11 7 7 10 8 4 6 10 13 15 16 16 17 16 16 16 17 18 18 18 19 20 21 22 22 23 24 27 29 30 31 32 33 33 32 32 34 37 39 34 33 37
9 9 6 5 6 7 3 4 9 13 20 29 25 20 26 33 33 33 27 22 25 29 27 25 24 21 18 17 18 19 18 18 17 14 12 11 6 5 4 5 5 6 9 12 11 10 12 13 9 4 3 7 10 12 13 13 14 15 15 14 15 15 16 16 17 18 19 20 22 22 24 26 27 27 26 27 31 33 33 32 33 37 39 36 35 39
11 13 9 7 9 9 4 5 12 19 26 31 29 28 33 35 36 36 32 28 30 33 32 30 26 23 20 19 19 19 19 19 17 13 11 11 9 7 6 5 6 6 8 12 14 15 15 11 6 3 2 6 8 10 12 13 12 13 13 13 13 14 14 14 14 16 17 19 21 22 23 24 25 25 24 25 28 31 33 33 34 37 38 37 38 42
10 14 11 8 10 10 7 10 18 24 27 28 27 30 36 37 37 36 33 32 33 34 34 31 26 24 23 21 21 21 19 17 18 14 12 12 10 9 9 8 10 11 11 12 15 15 13 10 6 4 4 6 6 7 10 12 13 13 12 11 11 11 12 13 13 14 16 17 19 21 23 23 23 22 23 25 27 29 33 36 37 38 39 41 43 44
9 13 11 9 11 11 8 13 24 30 29 23 22 30 36 37 37 36 34 32 31 32 34 34 31 31 30 27 25 23 18 17 18 16 15 14 13 11 11 10 12 15 13 12 12 12 11 11 11 10 11 12 10 8 7 9 10 10 9 8 7 8 11 12 11 13 15 17 19 21 21 22 23 23 24 27 29 31 34 37 39 40 42 43 43 43
10 10 9 9 11 9 7 14 24 25 20 19 26 34 38 36 35 35 35 33 31 29 32 35 36 36 35 32 29 26 22 19 17 15 18 23 23 20 16 13 14 18 19 17 15 14 13 12 12 13 15 15 14 13 12 12 11 10 9 7 6 7 9 9 7 8 10 13 16 18 18 19 22 23 24 26 29 31 34 35 36 38 40 41 40 40
9 7 8 8 8 8 10 17 22 16 11 18 29 36 36 35 34 34 34 34 31 29 28 31 35 36 36 35 33 31 30 27 21 17 20 27 30 28 23 19 18 19 21 21 20 18 16 15 14 15 16 15 13 13 13 13 12 11 11 10 9 8 6 5 4 4 5 9 13 16 15 16 18 20 21 23 25 28 32 33 34 36 38 38 38 39
7 6 8 8 6 8 15 22 24 19 15 20 29 32 32 32 32 31 31 32 31 28 26 29 32 33 35 37 36 33 32 31 28 25 24 26 29 29 27 26 25 23 21 21 23 23 22 20 18 19 19 17 15 14 12 12 11 9 8 8 8 8 7 5 4 3 6 10 13 15 14 14 16 18 20 22 25 28 31 33 35 37 37 38 38 38
Wind_Direction
256 256 239 246 270 277 280 273 271 277 274 270 272 265 261 259 250 248 248 235 241 258 241 234 240 239 230 228 227 226 230 226 221 222 221 220 219 217 219 222 224 227 226 224 226 230 232 234 234 231 230 231 229 217 205 206 213 214 218 220 215 213 220 231 230 216 204 202 206 204 202 207 206 205 207 208 211 214 214 213 210 207 205 203 204 204
240 260 254 252 280 280 273 271 265 265 255 247 253 255 248 248 249 244 245 245 242 251 252 244 243 243 237 232 229 226 224 225 224 224 225 225 223 219 219 221 224 225 227 226 222 226 231 231 232 232 231 231 230 227 220 213 211 212 216 219 218 215 217 228 234 227 214 206 207 206 203 204 204 204 207 210 213 212 213 213 210 208 207 205 206 206
239 255 272 287 276 258 254 258 256 252 249 244 240 246 247 244 247 243 236 237 240 245 248 248 247 243 238 237 237 234 231 229 226 227 230 231 229 224 219 217 221 223 225 225 215 222 233 232 231 232 233 234 234 236 234 221 211 213 215 217 220 218 217 223 232 235 226 212 208 208 205 202 201 205 209 213 216 214 213 213 210 208 208 207 207 208
272 285 67 66 280 252 244 241 250 253 248 244 239 242 244 239 245 244 226 221 234 247 252 256 256 249 242 237 237 238 238 236 233 234 236 236 234 229 223 218 220 222 225 225 213 219 232 231 230 231 233 236 235 234 233 222 212 214 215 216 220 220 219 220 227 235 232 218 210 211 208 202 200 206 210 213 216 214 212 212 210 209 210 209 207 207
277 289 222 221 252 248 251 243 241 251 250 243 240 245 250 245 245 249 250 247 252 251 250 257 262 253 241 236 235 234 234 235 235 237 238 236 234 233 231 226 223 223 225 228 218 216 228 229 229 232 233 234 233 232 230 224 219 218 215 216 223 222 220 221 223 230 233 225 213 209 207 201 201 205 207 212 214 212 210 211 210 210 211 209 207 208
271 278 242 245 254 245 252 250 239 244 255 251 238 237 249 255 253 251 263 270 261 249 231 230 246 250 234 234 235 230 228 228 228 232 235 234 231 230 231 230 227 225 226 231 226 218 225 231 231 231 232 232 231 231 231 227 225 222 217 220 229 228 222 221 222 225 232 233 221 211 208 204 203 205 205 211 213 209 207 207 209 209 209 209 208 210
261 267 242 250 262 251 248 249 241 235 246 258 242 231 243 252 251 247 251 248 246 256 231 215 234 250 236 232 230 226 226 225 222 225 229 230 230 227 225 226 226 225 226 230 232 224 222 230 230 227 230 232 232 233 233 229 226 223 221 227 234 231 223 220 220 222 229 234 230 220 214 209 206 207 208 211 212 211 209 206 205 205 206 208 208 212
221 246 241 245 258 253 248 246 235 223 237 260 276 245 247 245 243 238 241 242 243 260 249 217 232 252 248 234 224 222 224 224 221 221 223 226 228 228 225 223 223 224 226 227 230 227 219 224 230 231 233 235 235 237 237 231 224 221 224 231 233 229 224 220 218 220 225 233 235 228 220 213 209 209 209 210 211 211 212 209 206 206 208 208 208 213
176 244 252 251 253 247 251 257 238 220 238 256 48 286 260 251 250 243 239 243 242 251 247 222 224 241 249 238 228 224 224 225 223 221 222 222 225 227 227 225 224 225 228 228 228 226 219 226 234 236 236 237 237 237 235 228 223 229 234 231 229 228 225 220 217 219 222 229 236 235 226 214 210 211 207 209 209 207 211 212 210 211 210 208 208 213
268 266 269 265 260 256 261 263 244 226 244 258 253 255 254 251 253 246 241 246 241 242 244 230 222 232 245 235 226 226 226 227 226 225 226 224 225 227 227 228 228 226 228 230 230 227 223 228 236 238 237 237 237 234 231 222 218 233 237 231 230 230 225 219 217 219 220 225 234 237 231 216 208 210 206 206 209 207 210 210 210 212 210 210 209 212
272 269 267 260 259 263 268 264 246 236 247 257 243 242 243 237 238 237 236 243 242 239 239 236 231 235 247 238 225 225 225 227 230 229 228 227 228 228 227 228 228 226 226 229 231 229 228 228 230 233 233 234 236 234 230 224 220 228 232 230 233 231 224 219 217 218 219 222 229 236 235 223 211 209 206 206 209 209 211 209 208 210 211 212 212 213
272 263 249 245 249 254 260 258 247 238 239 244 240 241 243 230 225 231 229 229 240 243 235 232 233 236 243 240 234 235 228 226 232 231 227 227 227 227 227 228 229 227 225 228 232 229 228 226 222 228 231 233 236 235 231 229 228 230 230 228 231 231 224 219 216 217 219 221 227 233 236 231 220 212 207 207 208 210 212 211 210 211 211 212 213 214
283 268 257 251 241 238 245 250 244 233 228 232 235 237 239 231 221 224 225 225 233 240 239 234 232 236 244 245 248 250 242 233 236 237 235 234 230 230 229 228 229 229 224 226 231 229 226 224 218 225 236 239 238 237 234 233 234 235 233 228 227 227 224 220 217 216 217 220 224 230 234 234 227 217 211 210 208 209 210 209 210 212 210 210 214 217
292 273 252 253 238 223 233 245 243 231 221 222 226 229 232 231 224 222 225 232 234 235 237 235 233 243 251 243 240 245 247 245 247 247 247 248 246 241 236 231 228 226 223 223 229 230 225 225 220 223 236 242 239 237 236 236 237 237 234 231 228 225 223 222 220 218 217 218 221 226 231 233 230 221 215 213 211 211 211 208 210 212 210 210 215 218
299 297 192 222 260 191 223 242 250 252 241 230 229 231 235 237 234 231 229 232 239 241 230 223 222 233 244 239 228 237 241 241 243 244 245 246 248 247 244 242 238 230 226 224 227 229 223 224 225 222 233 242 240 237 235 234 236 236 234 233 232 231 229 227 225 222 219 219 219 222 227 231 231 226 217 212 214 213 210 209 210 210 210 215 220 222
287 299 182 208 254 201 235 250 250 251 253 240 232 231 233 238 241 244 251 259 272 269 240 223 227 232 248 272 276 257 248 242 240 239 237 238 240 241 241 242 240 233 228 225 226 228 224 223 225 221 227 238 242 239 235 231 231 232 231 231 234 237 237 234 230 225 222 219 219 221 224 228 229 229 223 213 212 211 211 215 216 215 219 223 227 229
282 298 58 214 233 232 247 261 243 236 249 243 227 231 232 238 250 252 255 267 284 275 252 243 250 243 253 270 259 245 244 243 243 239 234 235 237 239 239 238 236 233 229 225 225 229 230 229 229 223 216 224 236 241 237 233 231 229 226 228 236 238 235 233 232 229 225 221 218 219 222 225 226 229 229 220 210 211 217 219 219 222 225 225 225 227
295 290 287 263 261 253 246 257 245 231 245 253 234 246 241 233 251 255 247 248 246 248 249 247 251 248 249 258 241 228 231 231 236 237 233 233 234 237 239 238 236 234 230 229 230 234 237 234 233 229 216 214 230 241 240 239 239 235 231 235 243 242 238 236 234 230 225 219 217 217 219 222 223 226 230 225 209 212 220 216 214 224 223 218 219 219
309 286 289 260 264 290 240 241 245 224 230 246 259 287 259 230 233 231 228 236 235 239 244 242 246 248 245 247 241 232 231 228 232 234 232 232 230 232 236 236 235 234 233 233 234 236 238 236 234 233 224 215 224 237 240 239 242 242 241 244 248 247 245 242 236 228 222 219 221 219 215 218 219 221 228 227 212 212 221 213 211 224 222 215 218 218
256 268 287 148 165 280 257 228 243 220 210 233 251 256 245 245 257 242 231 232 233 239 246 244 245 243 240 245 250 254 258 258 253 244 238 236 233 233 235 236 236 234 232 231 232 235 238 237 236 235 231 222 219 228 235 236 238 240 242 244 246 247 243 238 234 230 228 226 225 221 216 215 214 215 223 224 214 212 219 213 211 223 223 217 216 218
223 238 269 220 164 267 265 232 249 250 207 213 232 235 232 231 240 252 250 239 238 243 246 248 250 247 240 237 244 252 252 250 253 250 244 242 238 236 236 237 238 236 232 230 231 234 236 236 236 238 237 231 223 224 230 234 235 237 239 238 240 244 240 232 231 234 233 229 225 221 217 212 209 211 215 217 217 215 214 210 210 219 222 220 218 221
214 231 259 271 266 265 265 259 261 261 242 224 222 226 234 232 227 234 238 230 236 246 247 251 255 253 256 252 251 260 254 243 250 256 253 247 245 246 245 241 240 239 235 231 229 231 233 232 233 236 240 237 229 223 225 231 232 234 237 236 235 241 240 235 235 236 232 227 222 219 217 213 210 209 210 217 222 219 212 209 211 215 220 221 220 222
211 244 256 263 273 271 274 275 259 244 242 243 240 235 233 234 233 232 232 228 232 241 246 254 260 260 262 266 276 282 275 266 266 268 262 249 245 257 263 250 241 237 232 229 228 229 232 233 233 235 238 239 236 227 221 225 230 232 234 235 235 238 240 240 240 236 229 226 223 218 215 214 211 207 210 219 222 217 211 209 211 213 216 219 219 220
196 225 255 262 278 274 268 264 243 230 232 235 236 235 232 234 236 238 249 258 251 246 246 248 253 255 253 256 266 274 274 272 262 251 247 251 248 255 268 259 242 239 234 231 232 234 237 236 234 233 234 236 236 231 223 219 225 232 234 234 234 237 240 240 238 232 226 224 220 216 214 214 211 208 212 216 216 216 213 207 209 212 213 215 217 218
195 232 243 273 296 292 263 235 208 214 223 232 234 230 229 233 239 244 253 261 262 257 258 255 252 257 264 264 264 265 271 277 268 249 243 253 256 257 271 281 267 255 247 242 241 238 237 236 232 230 231 232 231 229 226 221 220 227 233 234 234 235 237 239 236 229 226 223 216 213 215 215 212 211 212 210 212 217 214 205 208 212 211 212 213 214
231 253 211 268 295 305 305 310 305 236 227 234 234 232 230 227 229 237 244 247 250 253 256 256 258 266 271 267 268 270 272 277 276 259 251 257 261 271 291 296 294 281 261 253 249 242 237 236 232 227 226 227 228 226 225 226 223 224 230 234 233 234 235 236 234 230 226 223 217 214 215 215 214 213 210 208 212 217 213 204 207 210 212 213 211 212
246 252 226 239 253 277 293 298 304 295 270 250 235 230 230 226 225 229 233 236 239 247 251 249 256 267 270 266 268 271 269 271 274 266 259 260 265 286 299 296 296 292 268 256 254 250 244 239 234 229 224 223 224 223 223 229 231 228 229 230 231 233 234 233 232 229 226 221 215 214 214 214 215 213 210 210 212 215 213 207 207 209 210 212 210 210
258 261 234 227 230 247 269 281 288 284 269 262 251 236 229 225 224 225 231 236 238 246 251 247 251 261 269 272 273 276 271 266 269 270 272 281 288 293 290 287 292 293 273 261 260 261 258 249 240 234 228 222 220 221 222 227 233 233 231 230 230 231 232 232 231 228 224 220 214 214 215 215 215 214 212 210 209 212 213 210 210 210 209 210 209 209
265 275 251 233 236 242 250 264 275 278 270 260 254 247 236 227 224 225 232 238 239 246 256 261 265 267 272 275 273 273 265 260 274 287 293 299 299 291 281 281 290 294 272 267 275 271 266 259 249 240 233 226 221 220 222 224 227 229 230 229 229 228 229 231 231 227 224 222 216 213 215 215 215 214 211 208 209 213 213 212 213 212 210 212 210 209
263 280 279 271 264 259 250 253 263 270 269 258 248 247 241 233 230 230 235 239 241 248 256 265 272 272 272 272 270 269 267 271 288 296 296 297 294 287 282 281 288 296 275 271 286 283 278 274 261 246 239 232 225 220 221 223 223 223 225 226 226 227 229 229 229 226 223 221 216 212 213 215 217 215 209 208 213 215 214 213 214 212 210 210 210 210
238 265 299 294 283 277 253 243 256 263 259 255 251 247 242 238 235 234 238 241 242 249 254 259 265 266 265 267 268 268 271 276 284 290 292 292 290 289 287 280 281 288 278 278 289 287 288 289 275 254 240 235 230 223 220 222 223 221 222 225 227 229 228 227 228 226 222 220 215 209 211 215 217 214 208 208 212 213 212 211 211 209 207 208 210 211
234 266 298 293 294 301 270 224 256 271 255 250 251 248 241 237 235 236 239 240 243 250 255 255 257 262 268 273 267 263 267 272 277 284 286 284 282 284 282 277 282 287 279 284 292 291 294 296 284 263 245 237 233 227 222 220 219 218 219 223 226 228 226 224 225 224 221 218 210 206 213 216 214 212 210 208 210 212 213 210 207 206 205 207 212 213
268 289 299 294 296 304 307 279 248 277 258 246 257 263 251 243 245 248 245 243 244 247 253 257 260 272 283 286 278 274 276 280 280 278 278 279 280 281 278 282 296 303 294 292 294 294 297 297 287 270 252 239 232 228 225 221 217 216 218 220 222 223 221 220 222 222 218 210 202 205 215 215 211 209 209 210 211 213 212 208 206 208 207 206 212 213
294 293 292 294 286 295 313 323 238 244 257 237 359 351 332 302 290 282 275 270 262 255 255 260 264 273 279 279 281 283 279 278 280 280 281 283 284 285 290 303 315 316 308 303 297 296 300 299 290 276 258 244 234 228 225 221 217 217 217 215 213 210 209 211 216 216 210 203 201 206 212 214 209 205 208 214 214 211 211 210 210 213 212 210 212 212
303 303 293 282 265 285 305 310 285 290 27 55 19 13 6 356 335 303 292 284 273 264 259 261 264 267 271 276 281 284 284 287 291 294 290 284 279 283 298 314 321 319 313 307 300 297 299 298 290 278 261 247 236 226 219 215 211 209 207 204 199 196 197 201 206 206 200 199 203 207 212 213 208 206 212 217 212 210 214 215 213 213 213 215 215 214
295 301 296 286 281 289 301 312 314 331 82 66 39 31 348 312 292 285 282 278 271 257 249 254 265 269 275 282 284 287 296 303 302 296 288 278 276 293 309 318 320 314 306 303 300 296 295 296 291 277 260 247 233 221 213 208 203 199 197 195 193 192 194 197 197 196 196 198 202 207 212 212 209 212 219 218 215 217 218 216 214 212 211 213 214 215
296 298 306 300 272 287 305 311 304 285 114 110 127 69 342 299 292 295 286 284 286 268 247 260 274 277 279 281 284 292 302 307 301 291 280 258 285 303 311 316 314 307 304 302 298 295 295 296 291 274 253 242 229 216 209 203 197 194 191 189 188 189 191 194 194 193 196 200 202 207 211 211 210 215 219 219 220 220 217 215 215 213 213 214 214 215
286 283 309 308 276 293 310 314 313 319 346 306 288 317 316 297 292 289 276 279 296 324 353 304 280 278 279 277 286 298 303 299 287 284 295 308 309 313 316 316 313 308 306 305 302 299 295 292 290 272 246 233 221 208 202 196 191 188 186 184 185 188 191 194 193 192 196 200 204 208 211 211 212 215 217 220 220 218 218 219 215 212 218 220 216 215
323 289 286 299 309 324 329 330 332 334 349 344 305 300 301 300 297 288 264 250 312 337 336 323 299 292 286 274 280 292 298 291 279 293 320 320 317 318 318 315 315 311 307 308 309 300 289 286 288 270 239 223 211 200 195 190 186 184 183 183 185 188 193 194 192 193 196 196 200 206 208 211 214 216 216 217 217 218 219 218 213 216 223 221 215 216
360 350 330 336 341 340 335 329 324 331 322 308 297 304 313 317 313 291 278 13 350 326 321 316 301 291 277 268 274 275 265 275 287 305 312 312 311 312 312 313 316 314 311 313 311 294 287 287 280 248 222 207 200 193 188 186 183 182 181 182 185 190 194 195 192 192 194 194 196 201 206 211 216 217 215 215 216 218 218 215 213 217 221 218 214 214
2 356 355 356 350 342 343 344 347 14 228 288 316 326 327 323 319 329 329 322 318 316 314 309 304 303 300 294 297 295 275 282 297 304 305 306 307 310 318 321 314 308 311 319 320 300 292 290 264 223 197 184 186 182 179 180 180 180 182 182 186 192 194 193 192 191 193 195 198 202 207 212 215 215 215 216 217 218 219 217 215 216 220 221 217 214
356 349 357 2 349 343 355 355 343 357 151 326 332 331 323 320 337 317 301 304 311 319 324 325 325 327 328 322 314 306 298 297 301 303 306 312 312 314 326 328 316 310 318 330 336 312 295 288 244 194 172 165 172 171 170 173 174 177 181 183 188 193 193 191 191 191 193 196 198 201 205 210 214 216 216 217 218 219 220 218 217 219 223 223 219 216
357 345 348 357 348 340 355 359 354 359 331 332 335 333 307 344 342 318 312 327 344 351 350 345 343 339 335 330 319 313 311 308 308 313 319 316 314 322 337 342 335 329 328 335 338 319 308 335 83 156 160 151 154 159 161 165 168 173 179 182 187 191 190 188 187 187 189 192 193 195 201 209 215 215 214 216 217 217 217 217 216 220 223 219 214 216
10 359 341 345 347 343 355 1 352 312 313 326 333 338 340 345 349 347 348 353 355 357 358 355 349 343 336 329 321 317 316 314 317 323 318 303 305 324 335 343 350 345 338 340 345 345 3 30 52 93 148 144 144 148 151 153 157 164 170 173 177 180 181 181 181 182 185 188 189 192 199 207 213 213 213 215 216 215 216 215 214 217 219 216 214 218
6 356 329 307 327 334 316 283 292 297 315 327 333 339 343 348 358 3 3 357 352 356 0 357 351 348 342 334 327 322 319 320 324 324 314 312 336 5 340 335 357 354 348 355 11 31 36 36 40 53 122 141 140 139 140 142 147 155 159 159 163 169 173 175 179 182 186 189 190 194 200 206 210 211 211 212 214 216 216 214 214 216 217 216 216 220
355 350 338 319 328 331 308 294 313 321 326 329 333 343 349 352 358 2 1 357 354 357 1 360 357 356 352 345 339 334 328 328 332 332 334 345 3 10 2 22 55 47 17 10 19 31 38 40 32 20 91 132 132 130 132 134 138 144 148 152 158 163 167 172 178 185 191 194 195 198 203 207 210 211 213 215 217 219 218 216 216 217 218 217 218 220
352 352 349 339 339 340 343 348 343 335 327 325 332 345 351 354 359 3 3 360 358 1 7 8 6 4 2 358 350 345 341 342 345 345 352 360 4 4 4 21 52 59 40 22 26 34 43 58 63 50 81 108 116 128 137 138 138 140 144 151 156 159 163 171 179 187 194 200 204 206 205 207 211 211 211 211 213 217 221 222 223 223 223 224 224 223
333 339 346 341 337 339 342 345 341 331 322 326 341 347 347 351 356 360 3 5 8 14 19 20 16 11 9 7 1 356 353 359 2 1 4 9 11 13 16 26 53 69 64 51 56 68 77 88 96 94 90 92 97 108 121 127 132 139 145 152 159 163 168 175 186 198 204 208 214 215 211 209 214 216 215 215 218 223 229 231 232 232 234 235 233 230
320 327 343 332 328 339 342 340 341 332 320 332 346 344 343 347 352 356 2 10 15 19 23 26 25 18 12 11 11 10 10 15 19 20 30 39 39 32 29 37 59 76 80 79 84 93 90 87 94 95 91 92 98 104 105 103 105 113 121 127 139 156 166 172 182 202 214 218 223 227 225 220 221 224 227 230 232 233 236 237 237 239 241 242 240 236
339 341 347 334 335 351 340 336 341 335 314 328 337 337 340 346 352 357 3 8 13 15 18 25 28 24 19 17 19 21 22 25 31 35 42 51 53 47 44 46 52 66 78 83 87 88 82 77 80 83 84 86 90 95 97 98 100 107 118 125 127 129 136 142 147 173 214 225 226 231 235 234 233 233 235 238 239 238 238 238 239 241 244 245 245 242
351 339 337 332 319 316 318 326 333 326 311 320 329 333 339 346 351 356 0 5 12 15 16 21 26 27 26 24 24 26 26 25 31 39 44 52 59 59 57 57 55 56 61 70 76 77 76 74 73 75 80 83 83 83 82 82 87 97 110 122 128 129 129 129 140 182 224 230 230 236 243 246 246 245 243 244 244 243 242 240 238 239 241 244 246 245
Height
1498 1496 1492 1490 1487 1485 1487 1488 1486 1484 1485 1487 1486 1484 1482 1478 1474 1470 1469 1468 1470 1471 1465 1460 1457 1455 1456 1456 1455 1455 1455 1454 1456 1457 1457 1458 1460 1463 1466 1467 1470 1472 1472 1475 1477 1478 1481 1483 1485 1487 1489 1491 1493 1495 1498 1501 1505 1508 1510 1511 1512 1513 1516 1518 1520 1522 1524 1526 1528 1529 1532 1533 1535 1538 1541 1543 1543 1545 1547 1548 1549 1550 1552 1553 1554 1555
1498 1495 1488 1486 1487 1489 1490 1490 1489 1488 1488 1488 1487 1484 1481 1479 1475 1471 1471 1470 1470 1473 1468 1462 1460 1457 1455 1453 1452 1453 1454 1455 1455 1455 1455 1456 1458 1460 1462 1464 1467 1469 1471 1473 1474 1475 1478 1481 1482 1484 1485 1488 1490 1493 1495 1498 1502 1505 1507 1508 1510 1511 1513 1515 1517 1520 1522 1524 1526 1527 1530 1532 1535 1537 1539 1540 1541 1543 1545 1546 1548 1549 1550 1552 1552 1553
1493 1489 1485 1487 1489 1490 1490 1490 1490 1489 1488 1486 1484 1482 1479 1475 1472 1470 1470 1471 1470 1472 1469 1464 1462 1459 1455 1454 1453 1452 1451 1452 1454 1455 1455 1455 1456 1457 1458 1461 1463 1466 1468 1470 1471 1472 1474 1478 1479 1481 1482 1484 1487 1490 1493 1495 1499 1502 1504 1506 1508 1509 1510 1513 1516 1518 1520 1522 1524 1526 1528 1531 1535 1536 1537 1538 1539 1541 1543 1544 1546 1547 1549 1550 1551 1552
1490 1484 1484 1490 1491 1491 1490 1490 1490 1489 1486 1484 1481 1479 1477 1472 1472 1471 1467 1468 1470 1469 1467 1465 1463 1460 1457 1455 1454 1454 1454 1454 1454 1454 1455 1456 1456 1455 1456 1458 1460 1463 1465 1467 1468 1469 1471 1474 1475 1477 1479 1481 1484 1487 1488 1491 1496 1499 1501 1503 1505 1507 1508 1510 1513 1516 1518 1520 1522 1525 1527 1530 1533 1535 1535 1536 1538 1540 1541 1543 1544 1546 1547 1548 1550 1551
1489 1484 1486 1491 1491 1491 1490 1488 1488 1488 1484 1480 1478 1477 1474 1470 1472 1472 1467 1469 1471 1468 1467 1468 1468 1462 1457 1456 1453 1452 1453 1453 1453 1453 1453 1454 1454 1455 1456 1456 1457 1460 1462 1463 1465 1466 1467 1469 1471 1473 1475 1478 1480 1482 1484 1487 1492 1496 1498 1500 1502 1504 1506 1508 1511 1514 1516 1518 1520 1523 1526 1528 1530 1532 1532 1534 1535 1538 1540 1541 1542 1544 1546 1547 1549 1550
1486 1484 1487 1490 1489 1489 1488 1486 1485 1485 1483 1478 1474 1473 1473 1471 1472 1474 1473 1474 1475 1471 1464 1467 1472 1462 1451 1450 1448 1446 1447 1448 1449 1449 1449 1449 1451 1453 1454 1454 1455 1457 1459 1461 1462 1463 1464 1465 1467 1469 1471 1473 1475 1478 1480 1485 1490 1493 1495 1497 1500 1502 1504 1507 1509 1511 1513 1515 1518 1521 1523 1525 1527 1528 1530 1531 1533 1536 1538 1539 1541 1543 1544 1545 1547 1548
1483 1483 1486 1488 1487 1486 1485 1483 1481 1481 1482 1477 1469 1469 1473 1474 1474 1475 1475 1474 1474 1468 1456 1457 1466 1460 1447 1442 1440 1441 1442 1442 1444 1444 1444 1445 1446 1448 1450 1452 1453 1454 1457 1458 1459 1461 1461 1462 1464 1466 1468 1469 1472 1475 1478 1483 1487 1490 1492 1494 1497 1499 1501 1504 1506 1509 1510 1512 1515 1518 1520 1522 1524 1527 1529 1530 1531 1534 1536 1538 1540 1541 1543 1543 1545 1547
1481 1484 1486 1486 1486 1484 1482 1480 1477 1478 1481 1475 1469 1472 1475 1475 1474 1474 1473 1472 1468 1463 1455 1454 1460 1461 1451 1439 1433 1436 1438 1437 1438 1439 1439 1440 1441 1443 1445 1448 1451 1452 1454 1456 1457 1458 1459 1460 1462 1464 1465 1466 1470 1473 1476 1480 1483 1486 1488 1491 1494 1496 1498 1501 1504 1506 1507 1509 1512 1515 1518 1520 1523 1526 1528 1529 1530 1532 1534 1536 1538 1540 1541 1542 1544 1545
1480 1484 1483 1483 1483 1481 1477 1474 1474 1478 1479 1473 1472 1477 1476 1475 1474 1471 1471 1469 1464 1464 1462 1456 1457 1462 1455 1439 1433 1435 1436 1436 1435 1434 1434 1435 1437 1440 1442 1445 1448 1450 1452 1453 1454 1456 1457 1457 1459 1462 1463 1465 1468 1472 1474 1477 1481 1484 1485 1487 1490 1493 1495 1498 1501 1503 1504 1507 1509 1512 1515 1518 1521 1523 1526 1527 1529 1530 1532 1534 1536 1537 1538 1540 1541 1543
1479 1481 1481 1481 1479 1477 1474 1472 1474 1478 1477 1472 1474 1478 1476 1475 1474 1472 1471 1467 1464 1467 1465 1455 1452 1458 1452 1439 1435 1437 1437 1436 1432 1430 1431 1432 1434 1437 1439 1442 1445 1447 1449 1450 1451 1453 1455 1455 1457 1459 1462 1463 1466 1469 1471 1474 1479 1482 1482 1484 1487 1489 1492 1495 1498 1500 1502 1504 1506 1508 1511 1515 1518 1520 1523 1526 1527 1528 1529 1531 1533 1534 1536 1537 1539 1540
1477 1478 1480 1481 1478 1476 1474 1474 1474 1476 1475 1473 1476 1476 1473 1472 1471 1469 1468 1465 1467 1468 1462 1453 1448 1452 1450 1438 1431 1431 1432 1431 1430 1429 1430 1431 1433 1435 1437 1439 1442 1444 1445 1447 1449 1451 1453 1454 1455 1457 1459 1461 1463 1466 1468 1471 1475 1477 1479 1482 1485 1487 1489 1491 1494 1497 1499 1501 1503 1505 1508 1511 1515 1517 1520 1523 1524 1525 1527 1529 1531 1532 1534 1535 1536 1538
1474 1475 1477 1476 1477 1477 1475 1474 1473 1473 1474 1474 1474 1473 1471 1468 1467 1469 1466 1466 1472 1466 1454 1448 1445 1448 1449 1439 1428 1423 1424 1426 1427 1427 1428 1429 1430 1432 1434 1436 1439 1441 1442 1444 1446 1448 1450 1452 1452 1454 1456 1458 1460 1463 1466 1468 1471 1473 1477 1480 1482 1484 1486 1488 1491 1493 1496 1498 1500 1502 1504 1507 1511 1514 1517 1520 1521 1522 1525 1526 1528 1530 1531 1533 1534 1535
1471 1470 1470 1470 1472 1474 1475 1474 1472 1472 1472 1472 1472 1472 1474 1470 1468 1472 1468 1464 1466 1459 1446 1441 1442 1445 1442 1434 1428 1424 1422 1424 1426 1425 1426 1428 1429 1430 1432 1434 1435 1437 1439 1441 1443 1445 1447 1449 1450 1451 1453 1455 1457 1460 1463 1465 1467 1470 1474 1477 1479 1481 1483 1484 1487 1489 1492 1494 1496 1498 1501 1504 1507 1510 1513 1516 1519 1520 1522 1524 1526 1527 1528 1530 1531 1532
1472 1465 1465 1468 1468 1470 1474 1472 1471 1470 1469 1470 1469 1470 1474 1470 1469 1472 1467 1460 1457 1450 1441 1437 1441 1446 1439 1429 1427 1425 1424 1426 1427 1427 1428 1429 1430 1431 1431 1432 1434 1435 1436 1438 1440 1442 1444 1445 1447 1448 1450 1452 1454 1457 1459 1462 1464 1466 1470 1473 1475 1477 1479 1481 1483 1485 1488 1490 1493 1495 1497 1500 1503 1506 1509 1513 1516 1518 1520 1522 1524 1525 1526 1527 1528 1529
1479 1470 1466 1468 1467 1468 1470 1469 1468 1467 1466 1465 1461 1463 1468 1464 1463 1464 1458 1453 1449 1441 1435 1436 1441 1446 1439 1426 1420 1421 1422 1424 1425 1426 1428 1429 1430 1431 1432 1432 1433 1433 1434 1436 1437 1439 1441 1442 1444 1445 1447 1448 1451 1454 1456 1459 1460 1462 1466 1469 1471 1473 1475 1477 1480 1482 1484 1486 1489 1492 1494 1497 1499 1502 1505 1509 1512 1515 1517 1519 1521 1522 1523 1525 1526 1527
1479 1470 1464 1466 1467 1468 1469 1466 1465 1468 1467 1463 1458 1460 1462 1457 1455 1454 1448 1446 1448 1446 1438 1434 1435 1432 1427 1421 1417 1420 1421 1420 1421 1421 1422 1425 1425 1427 1429 1429 1430 1430 1432 1433 1435 1436 1438 1440 1442 1443 1444 1445 1448 1451 1453 1455 1457 1458 1462 1465 1467 1469 1471 1473 1476 1478 1480 1483 1486 1488 1490 1493 1496 1499 1501 1504 1507 1510 1513 1515 1516 1519 1520 1522 1524 1526
1478 1469 1463 1466 1468 1466 1467 1465 1464 1467 1466 1462 1460 1458 1453 1451 1453 1456 1454 1450 1454 1458 1447 1438 1436 1428 1424 1422 1416 1417 1420 1417 1418 1418 1418 1420 1421 1422 1424 1424 1426 1427 1429 1431 1432 1433 1435 1437 1439 1440 1441 1442 1444 1447 1449 1451 1453 1454 1458 1461 1463 1465 1467 1470 1472 1475 1477 1480 1482 1485 1487 1489 1492 1495 1497 1500 1503 1506 1508 1511 1513 1516 1518 1520 1522 1524
1482 1475 1465 1464 1465 1464 1465 1466 1463 1463 1463 1461 1461 1456 1449 1451 1455 1458 1462 1460 1459 1460 1449 1440 1439 1432 1430 1426 1412 1409 1415 1414 1414 1415 1415 1416 1418 1419 1420 1421 1423 1424 1426 1428 1429 1430 1432 1433 1435 1437 1439 1439 1440 1443 1445 1447 1449 1451 1453 1456 1459 1460 1462 1465 1468 1471 1474 1477 1479 1481 1484 1486 1488 1492 1494 1497 1500 1502 1504 1507 1510 1512 1515 1518 1520 1521
1489 1484 1467 1460 1466 1465 1464 1466 1463 1460 1461 1460 1459 1457 1454 1457 1458 1456 1462 1464 1462 1460 1450 1440 1435 1430 1428 1421 1410 1409 1411 1409 1410 1410 1411 1412 1413 1415 1416 1417 1419 1420 1422 1424 1425 1427 1428 1430 1432 1433 1435 1437 1437 1439 1442 1445 1447 1448 1450 1453 1456 1458 1459 1461 1464 1468 1471 1473 1475 1478 1481 1483 1485 1489 1491 1494 1497 1499 1500 1503 1506 1509 1512 1515 1517 1518
1492 1490 1474 1461 1466 1468 1464 1463 1461 1458 1460 1460 1459 1457 1454 1456 1457 1454 1453 1454 1454 1454 1448 1440 1434 1426 1419 1413 1409 1409 1408 1408 1409 1408 1407 1408 1408 1410 1412 1413 1415 1416 1418 1419 1421 1423 1425 1426 1428 1429 1431 1433 1435 1436 1438 1441 1444 1445 1447 1450 1453 1455 1456 1458 1461 1464 1467 1469 1472 1474 1477 1480 1483 1486 1488 1490 1493 1495 1496 1500 1503 1506 1509 1512 1514 1515
1491 1491 1480 1466 1466 1471 1466 1460 1456 1454 1456 1459 1460 1458 1455 1452 1453 1456 1453 1446 1445 1446 1443 1441 1437 1422 1408 1405 1406 1407 1407 1408 1407 1405 1405 1405 1405 1407 1408 1410 1411 1412 1414 1416 1418 1420 1421 1423 1425 1426 1428 1429 1432 1433 1433 1436 1439 1441 1444 1447 1449 1451 1452 1455 1457 1459 1462 1465 1468 1470 1473 1476 1479 1482 1484 1487 1489 1491 1493 1496 1500 1502 1505 1508 1510 1512
1489 1489 1484 1474 1469 1468 1461 1454 1452 1451 1451 1453 1454 1454 1452 1449 1450 1457 1457 1445 1441 1442 1438 1438 1437 1422 1405 1402 1404 1404 1404 1403 1402 1403 1403 1403 1404 1405 1406 1407 1409 1410 1411 1413 1415 1417 1418 1420 1421 1423 1425 1426 1427 1429 1430 1431 1434 1436 1439 1442 1445 1447 1448 1450 1453 1455 1458 1461 1463 1466 1469 1473 1476 1479 1481 1483 1485 1487 1490 1492 1495 1499 1501 1504 1506 1509
1488 1489 1485 1477 1468 1460 1454 1450 1450 1450 1449 1450 1449 1447 1447 1447 1446 1449 1450 1442 1438 1438 1433 1433 1437 1424 1408 1405 1407 1407 1405 1403 1404 1404 1404 1404 1405 1406 1406 1407 1408 1409 1410 1411 1413 1414 1415 1417 1418 1419 1421 1422 1423 1425 1427 1428 1430 1432 1434 1437 1441 1442 1443 1445 1448 1452 1455 1457 1459 1462 1467 1470 1472 1476 1478 1479 1481 1483 1486 1489 1492 1495 1497 1500 1502 1505
1487 1488 1484 1474 1462 1452 1448 1447 1446 1448 1450 1450 1447 1444 1444 1444 1441 1440 1439 1435 1435 1435 1431 1436 1438 1423 1409 1407 1409 1410 1409 1407 1406 1405 1405 1405 1406 1406 1406 1406 1406 1407 1408 1409 1410 1411 1412 1413 1414 1416 1417 1419 1420 1422 1424 1425 1426 1428 1430 1433 1436 1438 1440 1442 1445 1448 1451 1454 1456 1459 1463 1466 1469 1472 1473 1475 1477 1479 1482 1485 1488 1490 1493 1496 1499 1501
1484 1483 1482 1474 1463 1452 1447 1445 1445 1447 1449 1448 1445 1443 1441 1440 1440 1439 1437 1436 1438 1435 1432 1437 1436 1419 1408 1410 1411 1412 1412 1410 1406 1405 1405 1405 1404 1404 1404 1404 1404 1405 1405 1406 1407 1408 1410 1410 1411 1412 1414 1416 1418 1419 1420 1422 1424 1425 1427 1429 1432 1435 1437 1439 1441 1444 1447 1450 1453 1456 1459 1461 1465 1467 1468 1470 1473 1475 1478 1481 1484 1486 1490 1493 1495 1497
1483 1481 1481 1478 1469 1460 1453 1448 1446 1445 1445 1445 1443 1442 1440 1438 1439 1440 1440 1441 1441 1436 1432 1433 1429 1416 1410 1411 1412 1413 1413 1410 1407 1405 1404 1403 1403 1403 1403 1402 1402 1402 1402 1403 1405 1405 1406 1407 1407 1408 1410 1412 1414 1416 1417 1419 1420 1422 1424 1426 1428 1431 1434 1436 1438 1441 1444 1447 1449 1452 1455 1457 1460 1462 1464 1467 1469 1471 1474 1477 1480 1482 1485 1488 1491 1493
1482 1479 1477 1476 1472 1465 1457 1450 1445 1444 1444 1443 1440 1439 1438 1437 1437 1438 1440 1438 1434 1431 1428 1425 1421 1417 1413 1411 1411 1411 1410 1409 1407 1405 1403 1402 1401 1402 1402 1401 1400 1399 1400 1400 1401 1402 1403 1403 1403 1404 1406 1408 1410 1412 1413 1415 1417 1419 1420 1422 1425 1428 1430 1432 1434 1437 1440 1443 1446 1449 1451 1453 1455 1458 1461 1463 1465 1467 1470 1474 1476 1479 1482 1485 1487 1489
1480 1475 1470 1472 1471 1465 1459 1453 1447 1445 1442 1440 1438 1436 1434 1433 1434 1436 1435 1430 1427 1429 1426 1417 1416 1418 1414 1410 1410 1409 1408 1408 1406 1403 1402 1401 1401 1402 1404 1401 1397 1396 1396 1397 1398 1398 1399 1399 1399 1400 1401 1403 1405 1407 1409 1411 1413 1415 1417 1419 1421 1424 1426 1428 1430 1433 1436 1439 1442 1445 1447 1449 1451 1454 1458 1460 1462 1464 1467 1470 1472 1475 1478 1480 1483 1485
1476 1470 1464 1466 1466 1462 1460 1457 1451 1447 1441 1437 1435 1433 1431 1430 1430 1430 1429 1426 1426 1428 1423 1415 1415 1416 1411 1407 1407 1407 1406 1405 1402 1402 1402 1402 1402 1403 1404 1401 1395 1392 1393 1394 1395 1395 1396 1396 1396 1396 1397 1398 1401 1403 1404 1406 1408 1410 1413 1415 1417 1419 1421 1423 1426 1429 1432 1435 1438 1440 1443 1446 1448 1450 1454 1457 1458 1460 1463 1465 1468 1471 1474 1477 1479 1481
1474 1467 1459 1460 1460 1457 1457 1454 1450 1447 1442 1435 1433 1431 1429 1428 1426 1425 1424 1424 1424 1423 1418 1415 1415 1413 1409 1406 1405 1404 1404 1402 1401 1402 1403 1403 1403 1403 1403 1400 1393 1390 1390 1391 1392 1393 1393 1393 1393 1392 1392 1393 1395 1397 1399 1401 1404 1406 1408 1410 1413 1415 1417 1419 1421 1424 1427 1430 1433 1436 1440 1443 1444 1447 1451 1453 1454 1456 1459 1462 1465 1468 1471 1473 1475 1478
1473 1466 1457 1458 1457 1450 1448 1449 1447 1445 1440 1435 1431 1428 1427 1425 1423 1422 1421 1421 1421 1419 1416 1416 1415 1410 1404 1403 1404 1404 1403 1402 1401 1402 1404 1405 1404 1402 1403 1400 1393 1388 1387 1388 1390 1390 1390 1390 1390 1389 1388 1388 1389 1392 1394 1396 1399 1401 1403 1405 1407 1410 1413 1415 1417 1419 1422 1425 1428 1432 1436 1438 1440 1444 1447 1449 1451 1453 1456 1458 1462 1465 1468 1470 1471 1474
1472 1466 1458 1459 1456 1444 1440 1444 1444 1441 1439 1435 1430 1427 1426 1424 1421 1419 1417 1417 1417 1417 1415 1414 1412 1404 1399 1401 1403 1402 1401 1401 1401 1402 1405 1406 1404 1402 1401 1398 1390 1384 1384 1385 1386 1386 1386 1386 1386 1385 1384 1384 1385 1387 1389 1391 1394 1396 1398 1400 1403 1406 1408 1410 1412 1415 1418 1421 1425 1429 1431 1433 1437 1441 1444 1446 1448 1450 1452 1455 1459 1462 1465 1467 1468 1470
1468 1466 1461 1459 1455 1442 1435 1440 1441 1439 1437 1434 1429 1426 1423 1422 1421 1418 1414 1412 1412 1413 1414 1411 1405 1400 1398 1400 1401 1401 1402 1403 1403 1403 1404 1403 1399 1397 1396 1392 1385 1381 1381 1382 1382 1382 1383 1383 1382 1381 1380 1379 1380 1381 1383 1386 1388 1391 1393 1396 1399 1401 1403 1405 1407 1411 1414 1418 1422 1425 1427 1430 1434 1437 1440 1442 1445 1447 1449 1452 1455 1458 1462 1464 1465 1467
1464 1465 1462 1460 1455 1442 1435 1439 1441 1437 1434 1431 1430 1430 1427 1427 1429 1426 1421 1416 1412 1409 1408 1404 1400 1399 1399 1399 1400 1401 1402 1403 1403 1401 1400 1398 1393 1389 1386 1384 1381 1379 1379 1379 1379 1379 1379 1379 1378 1377 1376 1375 1375 1376 1379 1381 1383 1386 1389 1392 1395 1397 1399 1402 1404 1407 1411 1415 1419 1422 1424 1428 1431 1433 1436 1439 1441 1443 1446 1449 1452 1455 1458 1460 1461 1463
1465 1463 1461 1459 1456 1445 1438 1439 1438 1433 1432 1433 1434 1435 1433 1433 1435 1434 1429 1422 1416 1410 1406 1403 1400 1399 1398 1398 1399 1399 1398 1398 1397 1394 1393 1392 1389 1385 1382 1380 1378 1377 1376 1376 1376 1376 1376 1375 1374 1373 1372 1371 1371 1372 1375 1377 1379 1382 1385 1388 1391 1393 1396 1399 1401 1404 1408 1412 1416 1419 1421 1424 1428 1430 1432 1435 1437 1440 1443 1447 1450 1452 1455 1456 1458 1460
1466 1464 1461 1459 1455 1446 1440 1439 1437 1433 1435 1438 1437 1436 1436 1436 1437 1437 1430 1418 1410 1407 1404 1403 1401 1399 1399 1399 1398 1398 1397 1394 1392 1389 1387 1386 1385 1384 1382 1378 1376 1375 1374 1374 1374 1373 1373 1371 1370 1369 1368 1367 1367 1368 1370 1373 1375 1378 1380 1383 1387 1389 1392 1396 1399 1402 1405 1409 1412 1415 1418 1421 1425 1427 1428 1431 1434 1437 1440 1444 1447 1450 1452 1453 1455 1457
1464 1464 1462 1458 1453 1448 1443 1439 1435 1433 1435 1438 1437 1436 1437 1436 1435 1435 1429 1414 1404 1403 1403 1403 1403 1402 1402 1400 1398 1397 1396 1394 1390 1385 1383 1383 1384 1383 1381 1377 1375 1373 1372 1372 1372 1371 1369 1367 1366 1365 1364 1364 1364 1365 1367 1369 1371 1374 1377 1380 1382 1385 1389 1393 1396 1398 1401 1405 1408 1411 1414 1418 1422 1423 1424 1426 1430 1433 1437 1441 1444 1447 1449 1450 1452 1453
1461 1462 1462 1459 1453 1448 1445 1439 1434 1432 1433 1436 1438 1436 1435 1434 1431 1430 1428 1416 1405 1404 1406 1406 1404 1403 1401 1399 1397 1396 1394 1392 1388 1382 1381 1383 1383 1381 1378 1374 1373 1372 1371 1370 1369 1366 1364 1363 1361 1361 1361 1360 1361 1362 1364 1366 1368 1370 1373 1375 1378 1382 1386 1389 1392 1394 1397 1400 1404 1407 1410 1414 1416 1417 1418 1421 1425 1429 1433 1437 1440 1443 1444 1446 1447 1448
1456 1456 1458 1458 1452 1445 1443 1441 1438 1437 1437 1439 1442 1437 1431 1430 1428 1424 1421 1414 1407 1406 1407 1405 1403 1401 1400 1398 1396 1394 1394 1392 1386 1381 1381 1382 1380 1378 1375 1372 1371 1370 1369 1368 1365 1362 1360 1358 1356 1356 1357 1357 1358 1359 1361 1363 1365 1367 1370 1372 1375 1379 1383 1385 1387 1389 1392 1396 1399 1403 1406 1408 1410 1411 1413 1416 1420 1423 1427 1431 1435 1436 1438 1440 1442 1443
1454 1453 1452 1452 1449 1444 1443 1440 1438 1440 1442 1442 1443 1438 1429 1426 1425 1421 1416 1411 1407 1406 1405 1403 1402 1400 1399 1397 1394 1392 1394 1393 1387 1382 1382 1381 1378 1377 1374 1371 1368 1367 1366 1364 1362 1359 1357 1354 1352 1353 1355 1355 1356 1357 1359 1361 1363 1365 1367 1370 1373 1377 1380 1382 1384 1386 1389 1393 1396 1399 1402 1403 1405 1408 1410 1413 1416 1419 1422 1425 1428 1430 1432 1435 1437 1439
1459 1456 1451 1450 1449 1444 1441 1438 1435 1438 1444 1443 1440 1437 1430 1425 1423 1422 1419 1414 1408 1405 1403 1403 1401 1399 1398 1397 1394 1391 1391 1391 1387 1384 1382 1379 1377 1375 1372 1368 1366 1366 1365 1362 1358 1356 1354 1351 1350 1351 1352 1353 1354 1356 1357 1359 1361 1364 1366 1369 1372 1375 1378 1381 1383 1385 1388 1390 1393 1396 1398 1400 1402 1405 1407 1410 1412 1415 1418 1421 1425 1428 1431 1434 1436 1438
1468 1463 1454 1453 1453 1446 1440 1438 1435 1435 1439 1440 1437 1435 1431 1427 1426 1426 1423 1416 1410 1406 1403 1402 1400 1398 1396 1395 1394 1392 1390 1388 1387 1385 1381 1377 1374 1372 1369 1366 1365 1364 1362 1358 1356 1356 1354 1351 1349 1350 1350 1351 1352 1353 1355 1358 1360 1363 1366 1368 1371 1375 1377 1380 1382 1384 1386 1388 1391 1393 1395 1397 1399 1402 1405 1407 1410 1413 1417 1420 1424 1427 1429 1431 1433 1435
1476 1470 1461 1459 1459 1451 1444 1443 1443 1442 1441 1438 1436 1434 1432 1431 1431 1427 1420 1415 1411 1407 1403 1401 1399 1398 1395 1393 1392 1390 1389 1387 1385 1383 1380 1377 1374 1371 1368 1365 1363 1362 1360 1358 1357 1357 1355 1350 1347 1347 1348 1349 1350 1351 1354 1356 1359 1362 1365 1368 1371 1374 1376 1379 1381 1383 1385 1387 1389 1391 1393 1395 1397 1399 1402 1404 1407 1411 1413 1416 1419 1422 1424 1426 1428 1430
1477 1477 1473 1469 1465 1461 1458 1457 1456 1454 1448 1442 1440 1439 1436 1433 1430 1424 1419 1415 1412 1409 1405 1402 1400 1398 1395 1394 1392 1390 1387 1385 1383 1381 1379 1378 1375 1372 1369 1367 1364 1362 1361 1361 1359 1357 1353 1348 1346 1347 1349 1350 1350 1352 1353 1356 1358 1362 1364 1367 1370 1373 1375 1377 1380 1382 1384 1386 1388 1390 1392 1394 1396 1398 1400 1403 1406 1408 1410 1413 1416 1418 1420 1422 1424 1425
1479 1481 1481 1476 1469 1467 1467 1466 1461 1455 1450 1446 1444 1442 1438 1433 1429 1425 1421 1418 1414 1410 1407 1404 1401 1398 1396 1394 1392 1389 1386 1384 1382 1381 1379 1376 1374 1372 1370 1369 1367 1365 1363 1362 1359 1355 1350 1347 1349 1351 1351 1351 1351 1352 1354 1356 1359 1361 1364 1367 1369 1372 1374 1376 1379 1381 1383 1385 1387 1389 1391 1393 1395 1397 1400 1403 1404 1406 1408 1411 1414 1415 1417 1419 1421 1421
1482 1480 1479 1476 1470 1464 1463 1463 1459 1454 1450 1446 1444 1442 1439 1435 1430 1427 1423 1420 1416 1413 1409 1405 1402 1399 1396 1394 1391 1389 1386 1384 1382 1381 1378 1375 1373 1372 1371 1369 1367 1365 1362 1359 1356 1352 1349 1350 1353 1356 1355 1354 1353 1353 1355 1357 1359 1362 1365 1367 1369 1371 1374 1376 1378 1381 1383 1385 1387 1389 1391 1393 1394 1397 1399 1401 1403 1404 1407 1409 1411 1413 1414 1416 1417 1418
1482 1480 1478 1475 1471 1466 1463 1460 1458 1455 1452 1448 1445 1442 1439 1435 1432 1429 1426 1422 1419 1415 1410 1407 1404 1400 1397 1394 1391 1388 1386 1383 1381 1380 1378 1376 1375 1373 1372 1369 1366 1364 1361 1357 1355 1354 1355 1357 1359 1360 1359 1357 1356 1356 1358 1359 1361 1363 1365 1368 1370 1372 1373 1376 1378 1381 1383 1386 1388 1389 1390 1392 1393 1395 1397 1399 1401 1403 1405 1406 1408 1409 1410 1412 1414 1415
1485 1482 1480 1478 1475 1469 1465 1463 1460 1456 1452 1450 1448 1443 1439 1436 1433 1431 1428 1425 1421 1417 1413 1409 1405 1402 1398 1395 1391 1387 1385 1383 1382 1380 1378 1377 1376 1374 1373 1371 1368 1365 1361 1359 1359 1362 1365 1366 1365 1364 1362 1360 1359 1360 1362 1362 1363 1364 1366 1368 1371 1372 1373 1375 1377 1380 1383 1386 1387 1388 1390 1391 1392 1393 1395 1397 1399 1401 1401 1403 1405 1406 1407 1409 1411 1412
1488 1484 1483 1482 1477 1469 1465 1465 1462 1456 1450 1448 1448 1445 1441 1439 1436 1432 1429 1427 1423 1419 1415 1412 1409 1405 1401 1397 1393 1389 1385 1383 1382 1381 1379 1377 1375 1374 1374 1373 1370 1367 1365 1364 1366 1369 1371 1371 1370 1368 1365 1363 1363 1364 1365 1364 1364 1364 1364 1367 1370 1372 1373 1375 1376 1379 1382 1385 1387 1388 1389 1390 1391 1392 1394 1395 1396 1398 1398 1399 1401 1403 1404 1406 1408 1410
1488 1487 1486 1485 1480 1473 1469 1468 1467 1463 1456 1452 1451 1448 1445 1442 1439 1435 1431 1428 1424 1421 1418 1415 1413 1410 1406 1401 1397 1392 1388 1386 1385 1383 1381 1379 1376 1376 1376 1376 1373 1371 1370 1370 1371 1372 1372 1372 1371 1369 1367 1366 1366 1366 1366 1365 1364 1364 1365 1367 1370 1372 1373 1374 1375 1377 1380 1383 1386 1387 1388 1388 1389 1390 1391 1392 1393 1394 1395 1397 1399 1400 1401 1403 1405 1407
1491 1490 1489 1488 1485 1481 1476 1472 1471 1469 1464 1459 1455 1452 1447 1444 1441 1437 1434 1431 1427 1424 1421 1418 1416 1413 1409 1406 1402 1398 1394 1391 1389 1386 1383 1381 1379 1378 1379 1379 1377 1376 1375 1374 1373 1372 1371 1371 1371 1369 1367 1366 1365 1365 1365 1365 1365 1366 1368 1369 1370 1371 1371 1371 1373 1376 1379 1382 1385 1386 1387 1387 1387 1387 1388 1389 1390 1391 1392 1394 1395 1396 1398 1399 1401 1403